Language: 


Des rapports , des résumés tant et plus, au choix de chacun....


Données statistiques de la station
Quotidien Rapport Aout 5, 2017 Unités:  Anglais    Métrique   les deux
« Précédent Jour
Suivant Jour »
Quotidien Hebdomadaire Mensuel Annuel Actuel
  Haut: Bas: Moyen:
Température: 76.1 °F 51.1 °F 64.9 °F
Pt de rosée: 64.4 °F 48.2 °F 56.5 °F
Humidité: 94 % 45 % 75 %
Vitesse du vent: 16.8 mph 0 mph 3.4 mph
Rafales: 23.9 mph - -
Vent:- - West
Pression: 30.1 in 29.9 in -
Précipitation: 0.04 in    
Historical Graphs
 
 
Données statistiques pour Aout 5, 2017
Heure Température Point de rosée Pression Vent Vitesse du vent Refales Humidité Pluie (taux horaire)
00:03 62.8 °F 57.2 °F 29.9 in Calm   6.5 mph 82 % 0 in
00:09 62.8 °F 57.2 °F 29.9 in West 2.9 mph 6.5 mph 82 % 0 in
00:14 62.6 °F 57.2 °F 29.9 in Calm   6 mph 82 % 0 in
00:19 62.6 °F 57.2 °F 29.9 in Calm   6 mph 82 % 0 in
00:24 62.4 °F 57.2 °F 29.9 in Calm   4 mph 83 % 0 in
00:29 62.1 °F 57.2 °F 29.9 in Calm   3.8 mph 83 % 0 in
00:34 61.9 °F 57.2 °F 29.9 in Calm     83 % 0 in
00:39 61.5 °F 55.4 °F 29.9 in Calm     83 % 0 in
00:44 61.2 °F 57.2 °F 29.9 in Calm     84 % 0 in
00:49 61 °F 55.4 °F 29.9 in Calm     84 % 0 in
00:54 60.8 °F 57.2 °F 29.9 in Calm     85 % 0 in
00:59 60.6 °F 57.2 °F 29.9 in Calm     87 % 0 in
01:04 60.8 °F 57.2 °F 29.9 in Calm     87 % 0 in
01:09 60.8 °F 57.2 °F 29.9 in Calm     87 % 0 in
01:14 61 °F 57.2 °F 29.9 in Calm     87 % 0 in
01:19 61 °F 57.2 °F 29.9 in Calm     87 % 0 in
01:24 61 °F 57.2 °F 29.9 in WSW 6 mph 6 mph 88 % 0 in
01:29 61.2 °F 57.2 °F 29.9 in West 2.7 mph 6.3 mph 88 % 0 in
01:34 61.3 °F 57.2 °F 29.9 in Calm   6.3 mph 88 % 0 in
01:39 61.5 °F 57.2 °F 29.9 in SW 3.1 mph 5.8 mph 88 % 0 in
01:44 61.5 °F 57.2 °F 29.9 in Calm   4.3 mph 88 % 0 in
01:49 61.5 °F 57.2 °F 29.9 in Calm   3.8 mph 88 % 0 in
01:54 61.5 °F 57.2 °F 29.9 in Calm   3.8 mph 88 % 0 in
01:59 61.5 °F 57.2 °F 29.9 in Calm   3.8 mph 88 % 0 in
02:04 61.7 °F 59 °F 29.9 in SW 3.4 mph 4.9 mph 88 % 0 in
02:09 61.7 °F 59 °F 29.9 in West 3.6 mph 4.9 mph 88 % 0 in
02:14 61.7 °F 59 °F 29.9 in Calm   4.3 mph 88 % 0 in
02:19 61.7 °F 59 °F 29.9 in WSW 2.7 mph 4.9 mph 88 % 0 in
02:24 61.7 °F 59 °F 29.9 in WSW 2.9 mph 5.4 mph 88 % 0 in
02:29 61.7 °F 59 °F 29.9 in Calm   5.4 mph 88 % 0 in
02:34 61.9 °F 59 °F 29.9 in WSW 4 mph 7.8 mph 87 % 0 in
02:39 61.9 °F 59 °F 29.9 in Calm   7.8 mph 87 % 0 in
02:45 61.9 °F 57.2 °F 29.9 in WSW 0.9 mph 4.9 mph 86 % 0 in
02:50 61.9 °F 57.2 °F 29.9 in SSW 3.4 mph 5.4 mph 86 % 0 in
02:55 61.7 °F 57.2 °F 29.9 in SW 3.4 mph 5.4 mph 86 % 0 in
03:00 61.7 °F 57.2 °F 29.9 in Calm   4.3 mph 86 % 0 in
03:05 61.7 °F 57.2 °F 29.9 in WSW 2.9 mph 5.4 mph 86 % 0 in
03:10 61.7 °F 57.2 °F 29.9 in SSW 3.8 mph 5.4 mph 86 % 0 in
03:15 61.7 °F 57.2 °F 29.9 in Calm   4.9 mph 85 % 0 in
03:20 61.7 °F 57.2 °F 29.9 in Calm   4.9 mph 85 % 0 in
03:25 61.7 °F 57.2 °F 29.9 in Calm   5.4 mph 85 % 0 in
03:30 61.7 °F 57.2 °F 29.9 in Calm   5.4 mph 85 % 0 in
03:35 61.5 °F 57.2 °F 29.9 in Calm   2.7 mph 85 % 0 in
03:40 61.3 °F 57.2 °F 29.9 in Calm   2.7 mph 85 % 0 in
03:45 61.2 °F 57.2 °F 29.9 in Calm   2 mph 86 % 0 in
03:50 61 °F 57.2 °F 29.9 in Calm   3.6 mph 86 % 0 in
03:55 61 °F 57.2 °F 29.9 in Calm   3.6 mph 86 % 0 in
04:00 61.2 °F 57.2 °F 29.9 in Calm   0.9 mph 86 % 0 in
04:05 61.2 °F 57.2 °F 29.9 in Calm   2.7 mph 86 % 0 in
04:10 61.2 °F 57.2 °F 29.9 in Calm   2.7 mph 86 % 0 in
04:15 61 °F 57.2 °F 29.9 in Calm   2.9 mph 87 % 0 in
04:20 61 °F 57.2 °F 29.9 in Calm   2.9 mph 87 % 0 in
04:25 60.8 °F 57.2 °F 29.9 in Calm     87 % 0 in
04:30 60.8 °F 57.2 °F 29.9 in Calm     87 % 0 in
04:35 60.6 °F 57.2 °F 29.9 in Calm     88 % 0 in
04:40 60.6 °F 57.2 °F 29.9 in Calm     88 % 0 in
04:45 60.6 °F 57.2 °F 29.9 in Calm     88 % 0 in
04:51 60.4 °F 57.2 °F 29.9 in Calm     88 % 0 in
04:56 60.4 °F 57.2 °F 29.9 in Calm   2.2 mph 89 % 0 in
05:01 60.4 °F 57.2 °F 29.9 in Calm   2.2 mph 89 % 0 in
05:06 60.3 °F 57.2 °F 29.9 in Calm   2 mph 89 % 0 in
05:11 60.1 °F 57.2 °F 29.9 in Calm   2 mph 89 % 0 in
05:19 59.9 °F 57.2 °F 29.9 in Calm     90 % 0 in
05:24 59.7 °F 57.2 °F 29.9 in Calm   3.4 mph 90 % 0 in
05:25 59.7 °F 57.2 °F 29.9 in Calm   3.4 mph 90 % 0 in
05:27 59.7 °F 57.2 °F 29.9 in Calm   3.4 mph 90 % 0 in
05:32 59.7 °F 57.2 °F 29.9 in Calm   3.4 mph 90 % 0 in
05:37 59.5 °F 57.2 °F 29.9 in Calm     90 % 0 in
05:42 59.4 °F 57.2 °F 29.9 in Calm     90 % 0 in
05:47 59.4 °F 57.2 °F 29.9 in Calm     91 % 0 in
05:53 59.2 °F 57.2 °F 29.9 in Calm     91 % 0 in
05:58 59.2 °F 57.2 °F 29.9 in SSW 2.9 mph 2.9 mph 91 % 0 in
06:03 59.2 °F 57.2 °F 29.9 in SW 2.7 mph 5.4 mph 92 % 0 in
06:08 59.4 °F 57.2 °F 29.9 in Calm   5.4 mph 92 % 0 in
06:13 59.4 °F 57.2 °F 29.9 in Calm   3.6 mph 92 % 0 in
06:18 59.4 °F 57.2 °F 29.9 in Calm   2 mph 92 % 0 in
06:23 59.4 °F 57.2 °F 29.9 in Calm   3.8 mph 93 % 0 in
06:28 59.5 °F 57.2 °F 29.9 in Calm   3.8 mph 93 % 0 in
06:33 59.4 °F 57.2 °F 29.9 in Calm   4.3 mph 93 % 0 in
06:38 59.5 °F 57.2 °F 29.9 in South 1.6 mph 4.3 mph 93 % 0 in
06:43 59.5 °F 57.2 °F 29.9 in Calm   4.9 mph 94 % 0 in
06:48 59.5 °F 57.2 °F 29.9 in SW 4 mph 4.9 mph 94 % 0 in
06:53 59.5 °F 57.2 °F 29.9 in Calm   4 mph 94 % 0 in
06:58 59.7 °F 57.2 °F 29.9 in WSW 3.1 mph 3.6 mph 94 % 0 in
07:03 59.7 °F 57.2 °F 29.9 in WSW 2 mph 6 mph 94 % 0 in
07:08 59.9 °F 59 °F 29.9 in SSW 1.1 mph 6 mph 94 % 0 in
07:13 59.9 °F 59 °F 29.9 in SW 2.7 mph 6 mph 94 % 0 in
07:18 59.9 °F 59 °F 29.9 in Calm   5.6 mph 94 % 0 in
07:23 59.9 °F 59 °F 29.9 in SW 2.2 mph 5.6 mph 94 % 0 in
07:28 59.9 °F 59 °F 29.9 in Calm   4.9 mph 94 % 0 in
07:33 60.1 °F 59 °F 29.9 in Calm   3.6 mph 94 % 0 in
07:38 60.6 °F 59 °F 29.9 in Calm   3.6 mph 94 % 0 in
07:43 60.8 °F 59 °F 29.9 in Calm   3.4 mph 94 % 0 in
07:48 61 °F 59 °F 29.9 in Calm   4.9 mph 93 % 0 in
07:53 61 °F 59 °F 29.9 in Calm   4.9 mph 93 % 0 in
07:58 61 °F 59 °F 29.9 in Calm   3.6 mph 93 % 0 in
08:03 61.7 °F 60.8 °F 29.9 in Calm   3.1 mph 93 % 0 in
08:08 62.2 °F 60.8 °F 29.9 in Calm   2.7 mph 93 % 0 in
08:14 62.2 °F 59 °F 29.9 in SSW 5.8 mph 5.8 mph 92 % 0 in
08:19 62.2 °F 59 °F 29.9 in WSW 5.4 mph 7.6 mph 92 % 0 in
08:24 62.6 °F 60.8 °F 29.9 in West 4.3 mph 7.8 mph 92 % 0 in
08:29 63.5 °F 60.8 °F 29.9 in West 6.3 mph 7.8 mph 91 % 0 in
08:34 63.9 °F 60.8 °F 29.9 in West 7.4 mph 8.7 mph 91 % 0 in
08:39 64.4 °F 60.8 °F 29.9 in West 7.6 mph 9.4 mph 90 % 0 in
08:44 64.6 °F 60.8 °F 29.9 in West 4 mph 9.4 mph 89 % 0 in
08:49 64.9 °F 62.6 °F 29.9 in West 7.6 mph 9.6 mph 89 % 0 in
08:59 65.7 °F 62.6 °F 29.9 in WSW 6.5 mph 10.3 mph 87 % 0 in
09:04 66 °F 62.6 °F 29.9 in West 5.8 mph 10.3 mph 87 % 0 in
09:09 65.8 °F 60.8 °F 29.9 in West 7.6 mph 8.7 mph 86 % 0 in
09:14 66.4 °F 62.6 °F 29.9 in West 7.6 mph 10.1 mph 85 % 0 in
09:19 66.7 °F 62.6 °F 29.9 in WSW 5.6 mph 10.3 mph 84 % 0 in
09:24 66.7 °F 60.8 °F 29.9 in West 4.9 mph 10.3 mph 83 % 0 in
09:29 67.5 °F 62.6 °F 29.9 in WSW 7.8 mph 10.7 mph 82 % 0 in
09:34 67.6 °F 62.6 °F 29.9 in WSW 7.2 mph 10.7 mph 82 % 0 in
09:39 67.5 °F 60.8 °F 29.9 in WSW 6.3 mph 10.3 mph 81 % 0 in
09:45 67.3 °F 60.8 °F 29.9 in WSW 6 mph 8.1 mph 81 % 0 in
09:50 68 °F 62.6 °F 29.9 in West 1.3 mph 8.7 mph 80 % 0 in
09:55 68.4 °F 62.6 °F 29.9 in West 6 mph 10.1 mph 80 % 0 in
10:00 68.2 °F 60.8 °F 29.9 in West 6.3 mph 11.4 mph 79 % 0 in
10:05 68.2 °F 60.8 °F 29.9 in West 8.1 mph 11.4 mph 79 % 0 in
10:10 67.6 °F 60.8 °F 29.9 in West 5.8 mph 8.9 mph 78 % 0 in
10:15 68.5 °F 60.8 °F 29.9 in WSW 13.2 mph 13.2 mph 78 % 0 in
10:20 69.3 °F 60.8 °F 29.9 in West 10.5 mph 13.2 mph 76 % 0 in
10:25 69.6 °F 62.6 °F 29.9 in West 8.9 mph 13.2 mph 75 % 0 in
10:30 70.3 °F 62.6 °F 29.9 in West 10.5 mph 11.4 mph 74 % 0 in
10:35 70.5 °F 60.8 °F 29.9 in West 3.4 mph 12.8 mph 72 % 0 in
10:40 70.7 °F 60.8 °F 29.9 in West 5.8 mph 15.2 mph 71 % 0 in
10:45 71.4 °F 60.8 °F 29.9 in WSW 7.6 mph 15.2 mph 69 % 0 in
10:50 72.5 °F 62.6 °F 29.9 in WSW 4.3 mph 12.8 mph 68 % 0 in
10:55 73 °F 60.8 °F 29.9 in WNW 7.2 mph 10.7 mph 67 % 0 in
11:00 72 °F 60.8 °F 29.9 in WSW 7.4 mph 10.1 mph 67 % 0 in
11:05 70.2 °F 59 °F 29.9 in West 13.2 mph 15.9 mph 68 % 0 in
11:10 67.5 °F 59 °F 29.9 in West 6.3 mph 18.1 mph 75 % 0 in
11:15 66 °F 60.8 °F 29.9 in WSW 6.7 mph 18.1 mph 80 % 0.02 in
11:20 65.1 °F 59 °F 29.9 in WSW 6.3 mph 8.7 mph 82 % 0.04 in
11:25 64.9 °F 60.8 °F 29.9 in West 5.4 mph 8.5 mph 85 % 0.04 in
11:30 66 °F 62.6 °F 29.9 in West 1.3 mph 7.8 mph 88 % 0.04 in
11:35 67.5 °F 64.4 °F 29.9 in WSW 6.5 mph 7.6 mph 90 % 0.04 in
11:40 68 °F 64.4 °F 29.9 in WSW 6 mph 7.6 mph 90 % 0.04 in
11:46 67.8 °F 64.4 °F 29.9 in West 7.6 mph 8.7 mph 89 % 0.04 in
11:51 66.7 °F 62.6 °F 29.9 in WSW 2.9 mph 8.7 mph 86 % 0.04 in
11:56 65.7 °F 60.8 °F 30 in NNW 4 mph 9.8 mph 84 % 0.04 in
12:01 65.1 °F 60.8 °F 30 in West 2.5 mph 9.8 mph 86 % 0.04 in
12:06 64.9 °F 60.8 °F 30 in WNW 4 mph 6.5 mph 87 % 0.04 in
12:11 64.9 °F 60.8 °F 30 in West 2.2 mph 5.8 mph 88 % 0.04 in
12:16 66 °F 62.6 °F 30 in West 5.6 mph 8.5 mph 89 % 0 in
12:21 67.1 °F 64.4 °F 30 in NNW 3.1 mph 8.5 mph 90 % 0 in
12:26 67.1 °F 64.4 °F 30 in North 2.2 mph 8.5 mph 89 % 0 in
12:31 66.7 °F 62.6 °F 30 in NW 4.9 mph 8.5 mph 87 % 0 in
12:36 66.2 °F 62.6 °F 30 in North 5.6 mph 7.6 mph 86 % 0 in
12:41 66.2 °F 62.6 °F 30 in North 4.3 mph 5.8 mph 86 % 0 in
12:46 66.9 °F 62.6 °F 30 in WSW 2.5 mph 6 mph 86 % 0 in
12:51 68.2 °F 64.4 °F 30 in NE 2.5 mph 6 mph 86 % 0 in
12:56 68.7 °F 64.4 °F 30 in Calm   6.3 mph 84 % 0 in
13:01 69.8 °F 62.6 °F 30 in North 6.7 mph 7.6 mph 77 % 0 in
13:06 69.4 °F 62.6 °F 30 in North 1.3 mph 8.1 mph 79 % 0 in
13:11 68.7 °F 60.8 °F 30 in ESE 5.4 mph 8.1 mph 77 % 0 in
13:16 68 °F 60.8 °F 30 in North 4 mph 9.6 mph 77 % 0 in
13:21 68 °F 60.8 °F 30 in North 1.6 mph 9.6 mph 77 % 0 in
13:27 67.8 °F 60.8 °F 30 in Calm   7.2 mph 77 % 0 in
13:32 67.8 °F 60.8 °F 30 in WNW 5.4 mph 6.7 mph 77 % 0 in
13:37 69.4 °F 60.8 °F 30 in WNW 4.3 mph 8.1 mph 76 % 0 in
13:42 71.6 °F 62.6 °F 30 in WNW 9.4 mph 9.4 mph 73 % 0 in
13:47 71.1 °F 60.8 °F 30 in North 2.9 mph 9.4 mph 71 % 0 in
13:52 71.2 °F 60.8 °F 30 in NE 3.4 mph 8.1 mph 70 % 0 in
13:57 72.3 °F 59 °F 30 in North 2.5 mph 8.1 mph 64 % 0 in
14:02 71.4 °F 59 °F 30 in NNW 3.1 mph 8.1 mph 64 % 0 in
14:07 70.9 °F 59 °F 30 in NW 6 mph 8.5 mph 64 % 0 in
14:12 71.1 °F 59 °F 30 in NW 2.9 mph 8.5 mph 65 % 0 in
14:17 71.6 °F 59 °F 30 in NNW 3.6 mph 6.5 mph 63 % 0 in
14:22 72.1 °F 59 °F 30 in NNE 3.4 mph 6.5 mph 64 % 0 in
14:27 71.1 °F 57.2 °F 30 in North 3.8 mph 6.3 mph 61 % 0 in
14:32 72.3 °F 59 °F 30 in WNW 2.7 mph 8.1 mph 62 % 0 in
14:37 72.7 °F 59 °F 30 in WSW 3.1 mph 8.1 mph 61 % 0 in
14:42 71.4 °F 57.2 °F 30 in NNW 3.6 mph 7.2 mph 59 % 0 in
14:47 71.6 °F 57.2 °F 30 in NE 5.6 mph 7.2 mph 60 % 0 in
14:53 70.9 °F 55.4 °F 30 in North 7.8 mph 8.1 mph 58 % 0 in
14:58 70.7 °F 55.4 °F 30 in North 2.7 mph 8.1 mph 59 % 0 in
15:03 70.2 °F 55.4 °F 30 in NNW 3.6 mph 7.8 mph 60 % 0 in
15:08 70.2 °F 55.4 °F 30 in NNW 5.6 mph 7.2 mph 58 % 0 in
15:13 70.5 °F 55.4 °F 30 in SSW 4.3 mph 7.2 mph 59 % 0 in
15:18 70 °F 55.4 °F 30 in WNW 4.3 mph 4.9 mph 59 % 0 in
15:23 69.6 °F 55.4 °F 30 in NNE 2.5 mph 5.6 mph 60 % 0 in
15:28 69.8 °F 55.4 °F 30 in West 2.2 mph 5.6 mph 60 % 0 in
15:33 70.2 °F 55.4 °F 30 in North 4.3 mph 4.9 mph 60 % 0 in
15:38 70.3 °F 55.4 °F 30 in NNW 6.9 mph 6.9 mph 57 % 0 in
15:43 72.1 °F 55.4 °F 30 in NNW 4.3 mph 6.9 mph 57 % 0 in
15:48 73.8 °F 57.2 °F 30 in North 7.8 mph 7.8 mph 54 % 0 in
15:53 74.5 °F 57.2 °F 30 in NNE 3.1 mph 9.8 mph 53 % 0 in
15:58 75.7 °F 57.2 °F 30 in WNW 7.2 mph 9.8 mph 53 % 0 in
16:03 76.1 °F 57.2 °F 30 in North 3.6 mph 7.6 mph 51 % 0 in
16:08 76.1 °F 55.4 °F 30 in SW 4.7 mph 7.8 mph 49 % 0 in
16:13 73.8 °F 53.6 °F 30 in West 4.3 mph 8.1 mph 49 % 0 in
16:18 73.4 °F 53.6 °F 30 in West 6.5 mph 9.2 mph 48 % 0 in
16:23 74.8 °F 55.4 °F 30 in NNE 1.3 mph 9.2 mph 49 % 0 in
16:29 75.4 °F 53.6 °F 30 in West 8.7 mph 12.3 mph 46 % 0 in
16:34 74.1 °F 53.6 °F 30 in WSW 4.7 mph 12.3 mph 47 % 0 in
16:39 73.9 °F 53.6 °F 30 in WSW 4.3 mph 9.6 mph 47 % 0 in
16:44 75 °F 53.6 °F 30 in West 8.1 mph 9.8 mph 47 % 0 in
16:47 75.2 °F 53.6 °F 30 in West 6.3 mph 9.8 mph 46 % 0 in
16:52 75.7 °F 53.6 °F 30 in WSW 3.1 mph 11 mph 45 % 0 in
16:57 76.1 °F 53.6 °F 30 in SW 1.1 mph 11 mph 45 % 0 in
17:02 75.6 °F 55.4 °F 30 in West 10.5 mph 10.5 mph 47 % 0 in
17:07 74.5 °F 53.6 °F 30 in West 4.3 mph 10.5 mph 46 % 0 in
17:08 73.9 °F 51.8 °F 30 in SW 5.4 mph 10.5 mph 46 % 0 in
17:14 72.9 °F 51.8 °F 30 in WSW 8.7 mph 8.9 mph 48 % 0 in
17:19 72.1 °F 51.8 °F 30 in West 5.6 mph 8.7 mph 49 % 0 in
17:24 71.4 °F 51.8 °F 30 in WNW 5.8 mph 8.7 mph 50 % 0 in
17:29 71.2 °F 51.8 °F 30 in West 3.4 mph 8.7 mph 51 % 0 in
17:34 72.3 °F 53.6 °F 30 in West 5.6 mph 12.1 mph 51 % 0 in
17:39 73.9 °F 53.6 °F 30 in WSW 13.2 mph 17.7 mph 49 % 0 in
17:44 74.3 °F 55.4 °F 30.1 in West 12.5 mph 17.7 mph 49 % 0 in
17:54 74.1 °F 53.6 °F 30.1 in West 13.2 mph 23.9 mph 48 % 0 in
17:59 74.3 °F 53.6 °F 30 in West 14.1 mph 19.5 mph 48 % 0 in
18:04 73.9 °F 51.8 °F 30 in West 13 mph 21.9 mph 46 % 0 in
18:09 73.6 °F 51.8 °F 30 in West 13.2 mph 21.9 mph 46 % 0 in
18:14 73.4 °F 51.8 °F 30 in West 15.4 mph 20.8 mph 46 % 0 in
18:19 72.9 °F 51.8 °F 30 in NW 6 mph 20.8 mph 47 % 0 in
18:24 73.2 °F 51.8 °F 30 in WSW 8.1 mph 19.2 mph 47 % 0 in
18:29 72.7 °F 51.8 °F 30 in West 7.8 mph 15.2 mph 47 % 0 in
18:34 72 °F 51.8 °F 30 in West 16.8 mph 16.8 mph 48 % 0 in
18:39 72.1 °F 53.6 °F 30 in West 5.8 mph 16.8 mph 50 % 0 in
18:44 72.1 °F 51.8 °F 30.1 in WSW 12.5 mph 15.4 mph 48 % 0 in
18:49 72 °F 51.8 °F 30.1 in WSW 12.8 mph 17 mph 49 % 0 in
18:54 71.8 °F 51.8 °F 30.1 in West 10.5 mph 17 mph 48 % 0 in
18:59 71.4 °F 51.8 °F 30.1 in West 13 mph 15.4 mph 50 % 0 in
19:04 71.4 °F 51.8 °F 30.1 in West 15.7 mph 15.7 mph 49 % 0 in
19:09 70.5 °F 51.8 °F 30.1 in South 4.9 mph 17.2 mph 51 % 0 in
19:14 69.1 °F 51.8 °F 30.1 in West 9.4 mph 17.2 mph 52 % 0 in
19:19 69.3 °F 51.8 °F 30.1 in WNW 8.5 mph 15.4 mph 55 % 0 in
19:24 69.6 °F 53.6 °F 30.1 in WSW 8.7 mph 15.4 mph 55 % 0 in
19:29 69.3 °F 51.8 °F 30.1 in WNW 6.5 mph 10.7 mph 53 % 0 in
19:34 68.7 °F 51.8 °F 30.1 in West 3.6 mph 10.5 mph 53 % 0 in
19:39 68.2 °F 51.8 °F 30.1 in WNW 2.7 mph 8.7 mph 56 % 0 in
19:44 66.7 °F 53.6 °F 30.1 in WNW 5.6 mph 8.7 mph 60 % 0 in
19:49 65.8 °F 51.8 °F 30.1 in NW 2.5 mph 7.4 mph 61 % 0 in
19:54 65.7 °F 53.6 °F 30.1 in North 3.8 mph 6.9 mph 64 % 0 in
19:59 66.2 °F 55.4 °F 30.1 in NW 2.9 mph 6.9 mph 66 % 0 in
20:04 66.9 °F 55.4 °F 30.1 in SSW 2.7 mph 6.5 mph 65 % 0 in
20:09 67.1 °F 55.4 °F 30.1 in Calm   5.6 mph 65 % 0 in
20:14 67.1 °F 55.4 °F 30.1 in WNW 3.1 mph 5.4 mph 63 % 0 in
20:19 66.4 °F 51.8 °F 30.1 in WNW 5.6 mph 8.1 mph 61 % 0 in
20:24 65.7 °F 51.8 °F 30.1 in WSW 4.3 mph 8.1 mph 61 % 0 in
20:29 64.9 °F 51.8 °F 30.1 in West 3.8 mph 6.9 mph 60 % 0 in
20:39 64 °F 50 °F 30.1 in NE 3.6 mph 6.3 mph 62 % 0 in
20:44 63.7 °F 51.8 °F 30.1 in NNW 3.8 mph 5.4 mph 63 % 0 in
20:49 63.3 °F 50 °F 30.1 in Calm   5.6 mph 63 % 0 in
20:54 63.1 °F 51.8 °F 30.1 in Calm   5.6 mph 64 % 0 in
20:59 62.8 °F 51.8 °F 30.1 in West 3.4 mph 5.4 mph 65 % 0 in
21:04 62.4 °F 51.8 °F 30.1 in WNW 1.1 mph 5.4 mph 66 % 0 in
21:09 62.1 °F 51.8 °F 30.1 in West 3.1 mph 5.6 mph 67 % 0 in
21:14 61.9 °F 51.8 °F 30.1 in NW 2.2 mph 5.6 mph 68 % 0 in
21:19 61.5 °F 50 °F 30.1 in NNW 3.4 mph 4.5 mph 67 % 0 in
21:24 61.2 °F 51.8 °F 30.1 in WNW 2.5 mph 4 mph 68 % 0 in
21:29 60.8 °F 50 °F 30.1 in Calm   3.8 mph 68 % 0 in
21:31 60.6 °F 50 °F 30.1 in Calm   3.8 mph 69 % 0 in
21:36 60.4 °F 50 °F 30.1 in Calm   3.8 mph 69 % 0 in
21:47 59.7 °F 50 °F 30.1 in Calm   3.6 mph 70 % 0 in
21:52 59.4 °F 50 °F 30.1 in Calm   2.5 mph 70 % 0 in
21:57 59 °F 50 °F 30.1 in Calm   2.5 mph 71 % 0 in
22:02 58.6 °F 50 °F 30.1 in Calm   0.9 mph 72 % 0 in
22:07 58.1 °F 50 °F 30.1 in Calm   0.9 mph 72 % 0 in
22:12 57.6 °F 50 °F 30.1 in Calm     73 % 0 in
22:17 56.8 °F 48.2 °F 30.1 in Calm     74 % 0 in
22:22 56.7 °F 48.2 °F 30.1 in Calm     74 % 0 in
22:27 55.9 °F 48.2 °F 30.1 in Calm     76 % 0 in
22:32 55.6 °F 48.2 °F 30.1 in Calm     77 % 0 in
22:37 55 °F 48.2 °F 30.1 in Calm     78 % 0 in
22:42 54.7 °F 48.2 °F 30.1 in Calm   0.9 mph 79 % 0 in
22:47 54.3 °F 48.2 °F 30.1 in Calm   0.9 mph 80 % 0 in
22:52 54.1 °F 48.2 °F 30.1 in Calm   2.7 mph 81 % 0 in
22:57 54.1 °F 48.2 °F 30.1 in Calm   2.7 mph 81 % 0 in
23:02 53.8 °F 48.2 °F 30.1 in Calm     82 % 0 in
23:07 53.6 °F 48.2 °F 30.1 in Calm     82 % 0 in
23:09 53.4 °F 48.2 °F 30.1 in Calm     82 % 0 in
23:14 53.1 °F 48.2 °F 30.1 in Calm     83 % 0 in
23:19 52.7 °F 48.2 °F 30.1 in Calm     83 % 0 in
23:24 52.3 °F 48.2 °F 30.1 in Calm     84 % 0 in
23:29 52.2 °F 48.2 °F 30.1 in Calm     84 % 0 in
23:35 51.8 °F 48.2 °F 30.1 in Calm     84 % 0 in
23:40 51.6 °F 48.2 °F 30.1 in Calm     85 % 0 in
23:45 51.4 °F 48.2 °F 30.1 in Calm     85 % 0 in
23:50 51.3 °F 48.2 °F 30.1 in Calm     86 % 0 in
23:55 51.1 °F 48.2 °F 30.1 in Calm     86 % 0 in
Le Gheer Warneton
Courtoisie de Weather Underground - 2.25 mb

Mise a jour : 17-12-17 07:14:12
Généré par Cumulus 1.9.4 (1099)